Wind_Speed
11 10 10 6 7 9 10 10 10 12 10 10 12 13 14 15 15 16 16 17 18 18 16 15 15 17 18 18 19 18 19 16 14 12 12 12 13 13 13 13 11 10 10
6 5 7 7 5 5 10 11 12 12 13 12 12 13 14 15 16 18 19 20 19 21 21 20 21 20 20 22 22 22 21 21 19 18 17 18 18 17 19 17 15 12 12
7 9 8 6 6 6 8 8 7 8 10 13 15 16 16 16 16 16 17 18 18 19 21 20 21 22 23 25 28 24 23 23 24 24 21 19 19 22 22 22 19 17 16
9 8 8 7 9 12 8 7 7 8 11 12 10 13 17 17 18 18 18 17 17 19 20 22 23 24 24 26 26 27 25 26 24 20 24 24 21 19 17 22 22 20 20
12 9 7 8 6 6 8 8 10 10 10 11 11 14 15 16 17 20 21 22 22 23 22 24 26 29 31 30 26 27 27 27 27 24 21 23 26 20 17 20 19 20 20
9 8 8 9 7 8 11 11 11 11 10 10 12 14 16 19 20 21 22 21 21 22 23 21 24 27 27 23 22 24 22 22 23 22 20 20 22 20 22 20 23 22 22
10 7 6 5 6 7 10 11 11 10 9 10 11 12 14 17 19 22 22 22 23 22 21 20 21 21 20 21 24 23 25 27 21 19 19 24 15 22 18 26 28 25 26
9 7 6 5 6 8 9 8 7 8 10 11 12 14 15 15 16 19 21 22 20 20 19 18 24 25 21 23 22 21 23 20 20 21 21 20 10 8 13 15 24 29 32
10 7 6 6 6 7 7 6 7 8 10 12 13 14 15 15 16 17 19 19 19 20 16 18 17 37 16 22 20 20 20 21 21 19 17 17 16 11 11 13 14 18 20
10 8 6 7 5 4 4 5 6 8 11 12 13 15 16 16 15 17 18 18 18 20 19 17 22 21 25 24 21 19 20 21 21 19 16 15 16 15 16 16 16 18 21
9 8 8 6 5 4 5 4 6 8 10 12 14 14 14 13 13 16 17 18 18 19 19 17 19 23 22 23 19 13 16 18 17 17 16 19 20 20 18 19 20 20 21
9 8 7 4 3 2 2 4 7 9 11 11 11 11 9 9 10 11 13 17 16 17 17 17 18 21 20 19 16 17 19 20 21 20 21 22 23 22 21 21 22 21 21
6 7 4 2 3 2 2 4 6 7 7 7 6 7 8 8 8 9 11 13 15 18 18 16 17 16 16 16 16 18 21 18 21 22 23 24 24 24 23 24 24 24 25
1 1 3 3 4 3 4 4 4 4 5 2 4 6 5 5 6 7 10 13 14 19 16 10 18 18 15 15 19 21 20 16 17 20 22 23 24 24 25 25 26 28 29
1 1 3 3 3 4 5 4 2 0 1 3 5 6 8 9 9 12 16 8 9 8 10 12 15 13 16 18 22 20 18 16 19 20 22 22 23 25 26 27 27 27 27
1 1 1 2 4 6 6 5 3 5 8 9 9 8 8 8 8 10 10 12 10 10 10 11 12 11 14 17 12 11 11 17 17 20 21 21 23 24 25 26 27 27 27
3 0 1 4 5 7 6 4 6 7 5 3 3 4 5 6 8 9 9 8 8 9 9 10 10 11 13 11 11 12 12 15 16 18 20 22 23 24 26 27 28 29 30
3 2 2 5 7 8 7 6 8 10 9 6 6 6 8 9 10 11 13 13 12 11 12 12 11 11 12 13 13 15 16 18 19 21 22 24 25 26 27 29 29 30 31
4 3 5 5 6 7 8 8 8 8 11 11 12 12 13 14 16 16 15 13 12 12 13 12 13 14 14 15 16 17 18 19 21 23 25 26 28 30 31 33 34 36 37
4 6 6 7 6 6 7 8 9 11 14 15 15 16 17 18 17 15 12 11 13 15 16 16 17 18 18 17 17 19 21 22 24 26 28 30 32 33 35 37 39 40 42
5 6 8 8 8 8 8 8 9 11 14 15 16 17 17 16 14 13 13 16 17 17 17 17 17 18 19 20 23 24 25 27 29 31 32 34 35 36 37 39 42 41 42
8 8 8 9 10 10 10 11 11 11 12 13 14 14 14 14 15 15 18 19 18 17 18 19 21 23 24 25 26 28 30 32 34 37 37 38 39 40 40 41 41 42 43
11 10 9 9 9 10 12 13 13 12 11 12 13 14 15 16 18 18 19 19 20 22 22 23 25 26 27 29 31 34 37 39 40 40 42 42 43 43 43 45 44 44 44
14 12 11 9 8 8 8 10 10 11 11 13 14 16 17 18 18 18 19 20 22 24 27 27 29 30 32 34 36 38 40 41 42 43 45 46 45 45 44 43 45 44 44
12 14 11 10 10 12 13 13 14 16 16 17 18 19 20 21 22 24 26 27 29 28 30 31 33 34 35 37 38 40 41 43 44 43 44 44 43 44 43 40 42 43 42
9 14 15 16 16 16 17 18 19 20 20 20 22 23 24 27 29 31 32 31 30 31 33 35 36 37 38 39 41 43 44 45 46 43 42 42 42 41 42 41 38 40 41
Wind_Direction
240 291 266 292 229 202 209 246 234 243 245 237 236 234 233 234 245 249 246 248 249 251 246 253 259 262 262 263 267 268 261 259 267 271 271 272 272 263 254 247 238 239 241
245 266 248 232 217 205 204 214 227 241 250 252 250 245 245 247 250 253 252 257 257 254 255 256 258 261 265 259 263 263 260 262 264 271 267 275 266 270 256 242 238 241 245
232 220 220 201 205 278 217 210 219 236 247 253 253 253 255 258 259 256 257 256 257 255 257 261 264 264 265 269 273 258 257 262 263 259 265 269 274 272 254 238 233 235 239
204 209 211 219 188 216 232 227 236 256 260 257 261 260 259 261 263 266 267 265 262 264 264 263 266 270 268 267 264 273 257 265 269 256 260 264 273 271 239 228 235 236 240
215 218 206 225 227 234 244 240 255 267 262 262 257 257 264 266 266 264 263 266 268 265 267 272 274 275 271 267 259 267 263 261 264 271 270 260 262 257 242 233 238 243 246
215 218 217 225 247 252 258 260 263 273 269 263 261 259 254 254 259 261 261 265 268 261 265 268 275 277 273 257 254 253 261 260 261 266 268 273 265 258 241 243 246 248 252
222 228 237 238 263 269 265 260 263 261 265 275 277 275 270 266 261 257 260 259 259 261 263 267 275 279 260 261 257 264 265 266 271 275 274 264 286 255 248 259 245 250 253
204 218 224 253 273 271 263 262 259 269 278 277 278 279 274 266 261 262 260 262 262 262 265 270 260 255 246 251 258 260 272 268 277 285 287 285 295 262 260 243 253 257 257
198 211 235 268 285 271 269 264 272 275 275 277 279 278 278 272 262 260 261 265 269 268 266 267 269 268 251 255 258 266 276 277 273 281 281 299 301 296 299 277 268 270 269
195 212 244 270 269 253 249 253 265 280 286 288 287 288 283 273 264 262 264 265 264 270 270 262 272 260 261 254 252 261 270 277 277 281 287 286 288 291 289 284 284 288 288
198 216 238 255 258 257 264 284 294 292 293 295 290 285 280 277 269 261 254 258 263 269 269 258 259 264 264 267 271 253 264 266 269 269 278 288 287 292 283 282 288 283 291
213 216 217 240 261 260 280 300 296 294 298 302 298 296 289 283 276 267 258 253 255 268 266 262 264 272 259 269 266 264 262 261 262 267 276 280 288 290 286 289 289 292 292
197 203 207 205 230 229 253 281 300 305 306 313 313 316 311 294 282 279 270 271 274 270 277 260 263 277 256 256 269 270 270 263 268 275 278 284 284 287 286 287 289 291 291
47 222 208 233 238 220 238 262 305 297 295 299 348 345 345 336 334 306 279 273 269 273 272 257 278 270 253 265 272 280 259 276 277 280 283 284 286 284 284 287 288 290 290
274 191 213 223 235 252 260 265 272 332 63 111 72 57 49 31 10 352 18 328 300 307 282 298 314 254 267 300 255 265 251 273 275 282 285 286 285 289 292 292 292 291 290
224 96 318 270 260 270 278 258 198 137 107 97 87 69 55 34 26 19 8 7 6 348 343 339 317 335 319 325 246 265 281 285 293 296 298 298 297 298 300 299 297 295 294
218 143 311 287 279 284 294 264 206 180 156 121 37 42 25 6 354 350 348 340 329 323 320 325 324 315 320 321 329 319 304 295 302 303 303 301 301 300 299 298 298 297 295
223 218 281 282 288 292 288 275 237 223 231 242 287 304 314 318 323 325 325 321 316 311 310 314 312 312 317 317 316 311 309 305 304 302 303 304 302 301 301 301 300 299 297
240 268 279 273 282 295 295 276 260 249 247 258 278 290 303 309 315 318 318 316 319 321 320 316 312 311 310 307 304 302 302 301 302 303 302 302 303 304 304 304 303 302 302
231 244 260 274 274 278 285 282 276 269 270 275 281 287 292 297 303 308 310 309 309 306 303 301 302 302 300 300 300 300 301 301 301 301 300 301 301 301 301 301 302 300 298
257 253 254 263 274 274 277 281 281 279 279 284 288 290 294 296 297 296 294 299 301 301 301 301 302 301 300 298 298 296 295 295 297 298 298 297 297 297 297 297 297 296 294
264 266 270 263 264 267 270 270 272 276 284 290 292 295 296 296 295 296 301 303 300 300 301 302 300 297 297 296 295 296 296 298 301 301 300 300 299 299 300 299 298 298 297
263 263 270 268 261 265 273 274 274 278 283 286 290 293 295 293 291 290 292 296 299 300 299 300 299 297 296 295 295 297 298 298 298 298 299 300 299 300 301 300 300 300 300
256 252 249 254 258 260 264 270 271 276 279 284 288 289 287 285 284 286 289 290 292 293 294 295 296 296 296 297 297 297 297 298 300 301 302 301 300 301 301 303 302 300 299
246 243 236 242 251 259 259 260 269 275 280 284 285 284 283 284 286 288 288 290 289 289 293 295 295 295 295 295 295 297 298 299 300 302 302 302 303 303 303 302 301 300 297
237 244 254 263 265 264 270 275 277 280 283 286 287 287 290 291 291 291 292 291 291 293 294 295 296 296 296 297 299 300 302 302 303 303 301 300 301 302 301 300 298 297 297
Height
5889 5890 5893 5893 5893 5895 5895 5894 5899 5902 5902 5903 5905 5906 5908 5909 5910 5911 5913 5913 5914 5915 5915 5916 5916 5917 5917 5917 5917 5917 5917 5917 5917 5917 5917 5916 5916 5916 5916 5916 5916 5916 5916
5887 5889 5890 5892 5893 5894 5894 5896 5898 5899 5900 5901 5903 5904 5905 5906 5907 5908 5909 5910 5910 5911 5912 5912 5912 5912 5913 5913 5913 5913 5913 5914 5914 5914 5913 5912 5912 5912 5912 5913 5913 5914 5914
5885 5887 5889 5891 5886 5893 5896 5894 5895 5896 5898 5898 5900 5901 5902 5903 5904 5905 5905 5906 5907 5907 5908 5908 5907 5908 5908 5908 5908 5908 5909 5910 5909 5909 5909 5908 5908 5907 5906 5908 5909 5910 5910
5883 5885 5888 5891 5894 5897 5894 5893 5894 5895 5896 5896 5897 5898 5898 5900 5900 5901 5901 5902 5903 5903 5903 5903 5903 5902 5903 5903 5903 5902 5902 5903 5904 5904 5904 5904 5904 5903 5901 5903 5905 5906 5906
5883 5884 5887 5889 5890 5891 5892 5892 5893 5893 5893 5893 5894 5894 5894 5895 5896 5896 5897 5897 5898 5898 5898 5899 5897 5897 5896 5896 5897 5898 5898 5897 5899 5899 5900 5899 5900 5899 5899 5900 5901 5902 5903
5883 5883 5885 5887 5888 5888 5889 5890 5890 5890 5890 5890 5890 5890 5891 5891 5890 5891 5891 5892 5893 5894 5893 5894 5893 5892 5891 5891 5892 5892 5893 5893 5894 5894 5894 5893 5893 5894 5894 5896 5896 5897 5898
5880 5882 5883 5884 5886 5886 5887 5886 5887 5887 5887 5887 5886 5886 5887 5887 5887 5887 5887 5887 5888 5890 5890 5890 5891 5889 5889 5888 5888 5889 5889 5889 5889 5888 5889 5889 5887 5888 5889 5890 5891 5891 5892
5878 5882 5882 5883 5884 5884 5884 5884 5884 5885 5884 5884 5884 5883 5883 5884 5884 5883 5883 5883 5883 5884 5886 5887 5880 5878 5879 5880 5884 5883 5885 5885 5885 5886 5885 5883 5884 5884 5883 5883 5885 5885 5886
5877 5880 5881 5882 5882 5883 5882 5882 5882 5882 5882 5881 5880 5880 5879 5880 5879 5880 5879 5878 5879 5879 5882 5879 5878 5854 5873 5879 5879 5879 5880 5880 5881 5881 5881 5881 5879 5880 5880 5880 5880 5880 5880
5875 5878 5879 5880 5880 5880 5881 5881 5881 5880 5879 5878 5877 5875 5875 5875 5875 5875 5874 5874 5875 5875 5877 5878 5872 5869 5873 5873 5874 5874 5875 5875 5876 5876 5877 5877 5877 5876 5877 5876 5875 5874 5874
5873 5875 5877 5878 5878 5878 5879 5878 5878 5877 5877 5875 5874 5872 5871 5871 5871 5870 5871 5871 5871 5871 5872 5874 5874 5870 5871 5869 5866 5868 5870 5872 5872 5873 5873 5873 5873 5873 5873 5872 5871 5870 5868
5871 5873 5874 5875 5875 5876 5876 5876 5875 5875 5874 5873 5871 5870 5869 5868 5868 5868 5867 5867 5866 5867 5868 5867 5868 5867 5866 5866 5867 5867 5868 5869 5869 5869 5869 5869 5869 5868 5867 5867 5866 5865 5864
5871 5872 5872 5872 5874 5874 5874 5874 5875 5873 5872 5870 5869 5869 5868 5867 5867 5865 5864 5863 5864 5864 5864 5865 5865 5863 5864 5864 5865 5865 5865 5865 5866 5866 5866 5865 5864 5863 5863 5862 5861 5860 5859
5869 5869 5871 5872 5873 5872 5873 5874 5873 5872 5871 5870 5869 5868 5867 5867 5865 5864 5862 5861 5862 5861 5862 5862 5861 5861 5861 5862 5862 5860 5860 5862 5862 5862 5862 5861 5860 5859 5858 5857 5856 5855 5854
5869 5870 5870 5871 5871 5872 5872 5872 5872 5871 5870 5869 5869 5869 5867 5867 5865 5863 5862 5861 5860 5860 5861 5855 5859 5857 5858 5856 5856 5857 5857 5858 5859 5858 5857 5856 5855 5854 5853 5851 5850 5849 5848
5868 5869 5869 5870 5871 5872 5872 5871 5871 5871 5870 5870 5870 5869 5868 5867 5867 5866 5865 5863 5862 5861 5860 5859 5858 5857 5856 5854 5850 5853 5853 5854 5854 5854 5853 5852 5851 5850 5848 5846 5845 5843 5842
5866 5866 5868 5870 5870 5872 5871 5870 5870 5871 5871 5871 5870 5870 5869 5868 5867 5866 5864 5863 5862 5860 5860 5858 5857 5856 5856 5854 5852 5851 5852 5852 5851 5851 5850 5848 5847 5845 5843 5842 5839 5837 5836
5865 5865 5866 5868 5869 5870 5870 5870 5870 5870 5870 5870 5870 5869 5869 5868 5866 5865 5863 5862 5860 5859 5858 5857 5855 5855 5853 5852 5851 5851 5850 5848 5847 5846 5845 5843 5841 5838 5836 5834 5832 5829 5828
5864 5864 5866 5866 5867 5868 5868 5868 5868 5868 5869 5868 5868 5868 5867 5866 5865 5863 5861 5860 5858 5857 5856 5854 5853 5852 5850 5849 5848 5847 5846 5844 5842 5840 5838 5836 5834 5832 5829 5827 5824 5821 5818
5862 5863 5863 5864 5864 5864 5865 5866 5865 5866 5866 5867 5866 5866 5865 5864 5862 5860 5859 5857 5856 5854 5853 5852 5850 5849 5847 5845 5843 5842 5841 5839 5837 5835 5833 5830 5827 5824 5821 5818 5815 5813 5810
5860 5860 5860 5860 5861 5862 5862 5862 5863 5863 5864 5864 5863 5863 5861 5860 5859 5858 5856 5854 5853 5851 5849 5848 5846 5845 5843 5841 5839 5837 5835 5833 5830 5828 5825 5822 5819 5816 5813 5810 5806 5803 5800
5858 5857 5857 5857 5858 5859 5859 5859 5859 5859 5859 5859 5859 5858 5858 5857 5856 5854 5853 5851 5849 5847 5846 5844 5843 5841 5838 5836 5834 5831 5828 5825 5823 5819 5816 5812 5809 5806 5803 5799 5795 5792 5789
5855 5855 5855 5855 5855 5855 5856 5857 5856 5854 5854 5855 5854 5854 5853 5852 5851 5849 5847 5846 5845 5843 5841 5839 5837 5834 5832 5829 5827 5823 5820 5817 5814 5810 5806 5803 5798 5795 5792 5786 5784 5780 5777
5851 5852 5853 5853 5853 5852 5853 5853 5852 5851 5850 5850 5850 5849 5848 5847 5845 5844 5842 5840 5838 5837 5835 5832 5830 5827 5824 5822 5818 5814 5811 5807 5804 5800 5795 5791 5787 5784 5781 5776 5771 5768 5765
5849 5850 5851 5851 5850 5850 5849 5849 5848 5848 5848 5847 5846 5845 5843 5842 5841 5840 5838 5835 5832 5830 5828 5825 5822 5819 5815 5812 5808 5805 5802 5797 5793 5790 5784 5779 5776 5771 5768 5767 5760 5756 5753
5847 5848 5848 5849 5848 5847 5846 5845 5845 5844 5844 5843 5842 5840 5838 5836 5834 5833 5831 5829 5825 5822 5820 5817 5814 5810 5807 5803 5799 5795 5791 5786 5781 5779 5773 5770 5766 5761 5757 5754 5753 5747 5742